THY097 OEJN-LTFM

Flight info

Callsign THY097
Flight time 3h 27m
Altitude 32000
Route MIGDA L677 MENLI/N0467F360 L677 GESON DCT LAGVI Q777 RASDA M855 TOMBI UM855 SISPI
Aircraft B738/M-SDE2E3FGHIRWXY/LB1

Departure

Time 2026-04-30 17:46
Airport King Abdulaziz International Airport (OEJN)

Arrival

Time 2026-04-30 21:13
Airport İstanbul Airport (LTFM)
Time Latitude Longitude Altitude Speed Heading
2026-04-30 17:39 21.67776 39.16618 37 ft 11 kts 250°
2026-04-30 17:41 21.67129 39.16290 35 ft 19 kts 160°
2026-04-30 17:42 21.66885 39.16388 34 ft 18 kts 160°
2026-04-30 17:42 21.66487 39.16544 36 ft 24 kts 159°
2026-04-30 17:43 21.66199 39.16636 36 ft 18 kts 217°
2026-04-30 17:44 21.66344 39.16398 35 ft 26 kts 339°
2026-04-30 17:44 21.68585 39.15504 329 ft 172 kts 339°
2026-04-30 17:46 21.74916 39.13015 3139 ft 225 kts 338°
2026-04-30 17:47 21.81493 39.10137 4618 ft 294 kts 335°
2026-04-30 17:48 21.89606 39.06336 6769 ft 329 kts 334°
2026-04-30 17:48 21.95998 39.03371 8757 ft 338 kts 335°
2026-04-30 17:49 22.04849 38.99245 11025 ft 356 kts 334°
2026-04-30 17:50 22.14091 38.94926 13278 ft 368 kts 333°
2026-04-30 17:51 22.21256 38.91579 14502 ft 386 kts 333°
2026-04-30 17:52 22.28962 38.87972 14954 ft 416 kts 333°
2026-04-30 17:53 22.42366 38.81705 16925 ft 424 kts 333°
2026-04-30 17:54 22.53281 38.76585 18323 ft 431 kts 333°
2026-04-30 17:55 22.64137 38.71484 19608 ft 435 kts 333°
2026-04-30 17:56 22.75376 38.66479 20826 ft 439 kts 334°
2026-04-30 17:57 22.83913 38.62708 21699 ft 442 kts 334°
2026-04-30 17:58 22.92457 38.58908 22527 ft 445 kts 334°
2026-04-30 17:59 23.03975 38.53775 23542 ft 449 kts 333°
2026-04-30 18:00 23.15568 38.48599 24313 ft 453 kts 333°
2026-04-30 18:00 23.24327 38.44683 24865 ft 455 kts 333°
2026-04-30 18:01 23.30159 38.42072 25209 ft 457 kts 333°
2026-04-30 18:02 23.38972 38.38121 25744 ft 459 kts 333°
2026-04-30 18:02 23.47793 38.34164 26564 ft 454 kts 333°
2026-04-30 18:03 23.56531 38.30235 27411 ft 450 kts 332°
2026-04-30 18:04 23.65199 38.26333 28299 ft 447 kts 332°
2026-04-30 18:05 23.76610 38.21212 29598 ft 441 kts 332°
2026-04-30 18:06 23.87928 38.16119 30533 ft 441 kts 331°
2026-04-30 18:07 23.99278 38.11002 31304 ft 443 kts 330°
2026-04-30 18:08 24.07850 38.07133 31823 ft 445 kts 329°
2026-04-30 18:10 24.26645 37.95203 31827 ft 442 kts 318°
2026-04-30 18:11 24.44155 37.82010 31844 ft 429 kts 318°
2026-04-30 18:13 24.56378 37.72787 31862 ft 425 kts 318°
2026-04-30 18:14 24.68565 37.63570 31890 ft 427 kts 318°
2026-04-30 18:15 24.83304 37.52399 31911 ft 430 kts 318°
2026-04-30 18:16 24.93151 37.44915 31907 ft 431 kts 318°
2026-04-30 18:17 24.98087 37.41159 31901 ft 430 kts 318°
2026-04-30 18:18 25.05474 37.35531 31910 ft 430 kts 319°
2026-04-30 18:18 25.10360 37.31803 31909 ft 429 kts 319°
2026-04-30 18:19 25.15270 37.28053 31911 ft 428 kts 319°
2026-04-30 18:19 25.20173 37.24304 31914 ft 428 kts 319°
2026-04-30 18:20 25.25030 37.20587 31913 ft 427 kts 319°
2026-04-30 18:20 25.29928 37.16833 31907 ft 427 kts 319°
2026-04-30 18:21 25.34776 37.13110 31909 ft 426 kts 319°
2026-04-30 18:21 25.39655 37.09360 31908 ft 426 kts 319°
2026-04-30 18:22 25.43715 37.06247 31901 ft 426 kts 319°
2026-04-30 18:22 25.51040 37.00635 31901 ft 426 kts 319°
2026-04-30 18:23 25.55850 36.96944 31894 ft 426 kts 319°
2026-04-30 18:23 25.60702 36.93215 31899 ft 426 kts 319°
2026-04-30 18:24 25.68022 36.87581 31892 ft 426 kts 319°
2026-04-30 18:25 25.72868 36.83846 31892 ft 426 kts 319°
2026-04-30 18:25 25.80166 36.78192 31890 ft 426 kts 319°
2026-04-30 18:26 25.87425 36.72555 31886 ft 426 kts 319°
2026-04-30 18:27 25.94710 36.66891 31884 ft 425 kts 319°
2026-04-30 18:28 26.01962 36.61244 31883 ft 425 kts 319°
2026-04-30 18:28 26.09233 36.55573 31887 ft 425 kts 319°
2026-04-30 18:29 26.18777 36.47873 31880 ft 420 kts 311°
2026-04-30 18:30 26.26850 36.38537 31886 ft 418 kts 310°
2026-04-30 18:31 26.32884 36.31560 31884 ft 418 kts 310°
2026-04-30 18:32 26.38966 36.24542 31892 ft 419 kts 310°
2026-04-30 18:33 26.45020 36.17545 31894 ft 419 kts 310°
2026-04-30 18:33 26.51104 36.10501 31886 ft 419 kts 310°
2026-04-30 18:34 26.57156 36.03483 31892 ft 419 kts 310°
2026-04-30 18:35 26.61204 35.98782 31886 ft 419 kts 310°
2026-04-30 18:35 26.65222 35.94110 31888 ft 418 kts 310°
2026-04-30 18:36 26.71272 35.87067 31893 ft 418 kts 310°
2026-04-30 18:37 26.77314 35.80021 31900 ft 417 kts 310°
2026-04-30 18:37 26.81307 35.75360 31893 ft 417 kts 310°
2026-04-30 18:38 26.85327 35.70664 31900 ft 417 kts 310°
2026-04-30 18:38 26.89342 35.65967 31895 ft 417 kts 310°
2026-04-30 18:39 26.93332 35.61294 31899 ft 416 kts 310°
2026-04-30 18:39 26.97343 35.56589 31895 ft 416 kts 310°
2026-04-30 18:40 27.01341 35.51896 31900 ft 416 kts 310°
2026-04-30 18:40 27.05338 35.47199 31901 ft 415 kts 310°
2026-04-30 18:41 27.09299 35.42538 31903 ft 415 kts 310°
2026-04-30 18:41 27.13297 35.37830 31899 ft 415 kts 310°
2026-04-30 18:42 27.17278 35.33136 31900 ft 415 kts 310°
2026-04-30 18:42 27.23214 35.26127 31897 ft 414 kts 310°
2026-04-30 18:45 27.44980 35.00324 31892 ft 413 kts 310°
2026-04-30 18:46 27.48935 34.95619 31891 ft 412 kts 310°
2026-04-30 18:46 27.52912 34.91004 31885 ft 413 kts 312°
2026-04-30 18:47 27.57119 34.86567 31885 ft 414 kts 313°
2026-04-30 18:47 27.61347 34.82161 31883 ft 413 kts 313°
2026-04-30 18:48 27.65528 34.77762 31880 ft 413 kts 313°
2026-04-30 18:48 27.69721 34.73323 31886 ft 413 kts 313°
2026-04-30 18:49 27.73910 34.68877 31870 ft 412 kts 313°
2026-04-30 18:49 27.78093 34.64433 31880 ft 412 kts 312°
2026-04-30 18:50 27.82243 34.60020 31882 ft 412 kts 312°
2026-04-30 18:50 27.86422 34.55571 31882 ft 412 kts 312°
2026-04-30 18:51 27.90602 34.51116 31889 ft 411 kts 312°
2026-04-30 18:51 27.94747 34.46694 31887 ft 411 kts 312°
2026-04-30 18:52 27.98917 34.42244 31884 ft 411 kts 312°
2026-04-30 18:52 28.02658 34.37445 31891 ft 407 kts 306°
2026-04-30 18:53 28.06233 34.32456 31894 ft 408 kts 306°
2026-04-30 18:53 28.09826 34.27457 31895 ft 408 kts 306°
2026-04-30 18:54 28.13400 34.22497 31902 ft 408 kts 306°
2026-04-30 18:54 28.16993 34.17513 31921 ft 408 kts 306°
2026-04-30 18:55 28.20564 34.12555 31938 ft 408 kts 306°
2026-04-30 18:55 28.25943 34.05075 31963 ft 408 kts 306°
2026-04-30 18:56 28.31290 33.97628 31968 ft 406 kts 306°
2026-04-30 18:57 28.36678 33.90105 31971 ft 411 kts 306°
2026-04-30 18:57 28.40279 33.85071 31983 ft 410 kts 306°
2026-04-30 18:58 28.45514 33.77748 31985 ft 405 kts 306°
2026-04-30 18:59 28.50803 33.70331 31989 ft 402 kts 306°
2026-04-30 19:00 28.57860 33.60408 31979 ft 403 kts 306°
2026-04-30 19:01 28.64901 33.50484 31992 ft 405 kts 306°
2026-04-30 19:02 28.70224 33.42981 31977 ft 407 kts 306°
2026-04-30 19:03 28.77341 33.32929 31980 ft 408 kts 305°
2026-04-30 19:04 28.84470 33.22832 31988 ft 408 kts 305°
2026-04-30 19:05 28.91581 33.12735 31978 ft 408 kts 305°
2026-04-30 19:06 28.98676 33.02638 31981 ft 408 kts 305°
2026-04-30 19:06 29.03976 32.95078 31983 ft 407 kts 305°
2026-04-30 19:07 29.09291 32.87483 31985 ft 407 kts 305°
2026-04-30 19:08 29.16348 32.77377 31987 ft 407 kts 305°
2026-04-30 19:09 29.21649 32.69768 31988 ft 407 kts 305°
2026-04-30 19:09 29.25183 32.64689 31993 ft 407 kts 305°
2026-04-30 19:10 29.31606 32.55407 31998 ft 407 kts 304°
2026-04-30 19:11 29.36851 32.47750 32006 ft 407 kts 304°
2026-04-30 19:12 29.40355 32.42630 32007 ft 407 kts 304°
2026-04-30 19:12 29.43858 32.37508 31999 ft 407 kts 304°
2026-04-30 19:13 29.50805 32.27332 32004 ft 408 kts 304°
2026-04-30 19:14 29.54288 32.22220 31998 ft 408 kts 304°
2026-04-30 19:14 29.57794 32.17068 32008 ft 408 kts 304°
2026-04-30 19:15 29.61274 32.11949 32004 ft 408 kts 304°
2026-04-30 19:15 29.66518 32.04220 32019 ft 409 kts 304°
2026-04-30 19:16 29.70021 31.99049 32020 ft 409 kts 304°
2026-04-30 19:17 29.75267 31.91294 32006 ft 409 kts 304°
2026-04-30 19:17 29.80453 31.83521 32002 ft 409 kts 303°
2026-04-30 19:18 29.85529 31.75589 32001 ft 410 kts 303°
2026-04-30 19:19 29.88972 31.70330 31993 ft 413 kts 309°
2026-04-30 19:19 29.91139 31.68182 32013 ft 420 kts 320°
2026-04-30 19:19 29.96507 31.65282 31990 ft 438 kts 341°
2026-04-30 19:20 30.02558 31.64159 32006 ft 442 kts 345°
2026-04-30 19:21 30.11706 31.62653 32018 ft 442 kts 344°
2026-04-30 19:22 30.23251 31.60605 32016 ft 440 kts 344°
2026-04-30 19:23 30.40409 31.57508 32824 ft 439 kts 343°
2026-04-30 19:24 30.46425 31.56423 33464 ft 435 kts 343°
2026-04-30 19:24 30.49425 31.55880 33679 ft 436 kts 343°
2026-04-30 19:24 30.55375 31.54801 34009 ft 435 kts 343°
2026-04-30 19:25 30.64390 31.53165 34021 ft 436 kts 343°
2026-04-30 19:26 30.76305 31.51000 34031 ft 434 kts 343°
2026-04-30 19:27 30.85269 31.49373 34029 ft 433 kts 343°
2026-04-30 19:28 30.94180 31.47752 34031 ft 433 kts 343°
2026-04-30 19:29 31.06067 31.45583 34034 ft 433 kts 343°
2026-04-30 19:30 31.17978 31.43405 34034 ft 434 kts 343°
2026-04-30 19:31 31.29914 31.41206 34034 ft 434 kts 343°
2026-04-30 19:31 31.38834 31.39531 34035 ft 434 kts 343°
2026-04-30 19:32 31.44806 31.38410 34031 ft 434 kts 343°
2026-04-30 19:32 31.50739 31.37296 34040 ft 434 kts 343°
2026-04-30 19:33 31.56719 31.36219 34022 ft 436 kts 346°
2026-04-30 19:33 31.62790 31.35565 34027 ft 438 kts 348°
2026-04-30 19:34 31.68829 31.35012 34028 ft 437 kts 347°
2026-04-30 19:35 31.77927 31.34098 34031 ft 436 kts 347°
2026-04-30 19:35 31.83983 31.33471 34031 ft 436 kts 347°
2026-04-30 19:36 31.90001 31.32847 34031 ft 436 kts 347°
2026-04-30 19:36 31.99083 31.31894 34037 ft 436 kts 347°
2026-04-30 19:37 32.05099 31.31263 34034 ft 436 kts 347°
2026-04-30 19:37 32.11149 31.30632 34037 ft 436 kts 347°
2026-04-30 19:38 32.17198 31.30001 34035 ft 436 kts 347°
2026-04-30 19:38 32.23202 31.29358 34035 ft 435 kts 347°
2026-04-30 19:39 32.29242 31.28702 34033 ft 435 kts 347°
2026-04-30 19:39 32.35281 31.28046 34034 ft 435 kts 347°
2026-04-30 19:40 32.41291 31.27394 34033 ft 435 kts 347°
2026-04-30 19:40 32.47344 31.26737 34032 ft 436 kts 347°
2026-04-30 19:41 32.53346 31.26085 34035 ft 436 kts 347°
2026-04-30 19:41 32.59198 31.24708 34037 ft 422 kts 334°
2026-04-30 19:42 32.64474 31.21805 34033 ft 416 kts 327°
2026-04-30 19:42 32.69628 31.18736 34032 ft 417 kts 327°
2026-04-30 19:43 32.74831 31.15666 34029 ft 418 kts 327°
2026-04-30 19:44 32.82679 31.11068 34032 ft 419 kts 328°
2026-04-30 19:44 32.87881 31.08018 34031 ft 419 kts 328°
2026-04-30 19:45 32.93118 31.04944 34030 ft 418 kts 328°
2026-04-30 19:45 32.98340 31.01872 34024 ft 418 kts 328°
2026-04-30 19:46 33.03531 30.98816 34026 ft 418 kts 328°
2026-04-30 19:46 33.08872 30.95987 34024 ft 425 kts 336°
2026-04-30 19:47 33.14777 30.94707 34026 ft 439 kts 350°
2026-04-30 19:47 33.20878 30.94495 34025 ft 441 kts 351°
2026-04-30 19:48 33.27021 30.94334 34025 ft 441 kts 351°
2026-04-30 19:48 33.33149 30.94135 34019 ft 440 kts 351°
2026-04-30 19:49 33.39249 30.93912 34021 ft 440 kts 351°
2026-04-30 19:49 33.48433 30.93566 34024 ft 440 kts 351°
2026-04-30 19:50 33.54521 30.93337 34020 ft 439 kts 351°
2026-04-30 19:50 33.60646 30.93107 34026 ft 439 kts 351°
2026-04-30 19:51 33.66757 30.92877 34023 ft 439 kts 351°
2026-04-30 19:51 33.72831 30.92649 34026 ft 439 kts 351°
2026-04-30 19:52 33.78950 30.92418 34022 ft 439 kts 351°
2026-04-30 19:52 33.85023 30.92189 34023 ft 438 kts 351°
2026-04-30 19:53 33.91135 30.91958 34024 ft 439 kts 351°
2026-04-30 19:53 33.97240 30.91715 34025 ft 438 kts 351°
2026-04-30 19:54 34.03344 30.91377 34023 ft 438 kts 351°
2026-04-30 19:54 34.09412 30.91026 34021 ft 439 kts 351°
2026-04-30 19:55 34.15538 30.90683 34023 ft 440 kts 351°
2026-04-30 19:55 34.21623 30.90348 34028 ft 441 kts 351°
2026-04-30 19:56 34.27765 30.90017 34021 ft 441 kts 351°
2026-04-30 19:56 34.33917 30.89708 34014 ft 442 kts 351°
2026-04-30 19:57 34.40040 30.89401 34026 ft 442 kts 351°
2026-04-30 19:57 34.46214 30.89089 34033 ft 443 kts 351°
2026-04-30 19:58 34.52384 30.88775 34017 ft 443 kts 352°
2026-04-30 19:58 34.58557 30.88460 34017 ft 444 kts 352°
2026-04-30 19:59 34.64696 30.88172 34019 ft 445 kts 353°
2026-04-30 20:00 34.74026 30.87892 34017 ft 447 kts 353°
2026-04-30 20:00 34.80209 30.87706 34016 ft 448 kts 353°
2026-04-30 20:01 34.89584 30.87408 34019 ft 449 kts 353°
2026-04-30 20:01 34.95846 30.87207 34021 ft 450 kts 353°
2026-04-30 20:02 35.04206 30.86938 34017 ft 452 kts 354°
2026-04-30 20:03 35.14673 30.86600 34022 ft 454 kts 354°
2026-04-30 20:03 35.20998 30.86394 34021 ft 455 kts 354°
2026-04-30 20:04 35.26276 30.86213 34016 ft 455 kts 354°
2026-04-30 20:05 35.35785 30.85887 34016 ft 455 kts 354°
2026-04-30 20:05 35.45273 30.85563 34018 ft 456 kts 354°
2026-04-30 20:06 35.51480 30.85350 34018 ft 456 kts 355°
2026-04-30 20:06 35.57827 30.85133 34018 ft 456 kts 355°
2026-04-30 20:07 35.64198 30.84889 34013 ft 456 kts 354°
2026-04-30 20:08 35.73692 30.84287 34016 ft 456 kts 353°
2026-04-30 20:08 35.80001 30.83882 34018 ft 456 kts 354°
2026-04-30 20:09 35.86350 30.83490 34014 ft 456 kts 354°
2026-04-30 20:09 35.95866 30.82907 34015 ft 456 kts 354°
2026-04-30 20:10 36.05341 30.82332 34011 ft 456 kts 354°
2026-04-30 20:11 36.14862 30.82030 34010 ft 456 kts 355°
2026-04-30 20:11 36.21217 30.81852 34011 ft 456 kts 355°
2026-04-30 20:12 36.30617 30.81554 34015 ft 456 kts 355°
2026-04-30 20:13 36.36968 30.81349 34013 ft 456 kts 355°
2026-04-30 20:13 36.43307 30.81143 34014 ft 455 kts 355°
2026-04-30 20:14 36.49609 30.80921 34012 ft 455 kts 355°
2026-04-30 20:14 36.55935 30.80693 34014 ft 454 kts 355°
2026-04-30 20:15 36.62249 30.80467 34017 ft 454 kts 355°
2026-04-30 20:15 36.68578 30.80241 34017 ft 454 kts 355°
2026-04-30 20:16 36.74868 30.80017 34022 ft 454 kts 355°
2026-04-30 20:16 36.81184 30.79791 34022 ft 453 kts 355°
2026-04-30 20:17 36.87497 30.79565 34024 ft 453 kts 355°
2026-04-30 20:17 36.93733 30.79281 34011 ft 452 kts 352°
2026-04-30 20:18 36.99987 30.78545 34025 ft 451 kts 350°
2026-04-30 20:18 37.06232 30.77700 34031 ft 451 kts 350°
2026-04-30 20:19 37.12444 30.76902 34025 ft 451 kts 351°
2026-04-30 20:19 37.18693 30.76129 34026 ft 451 kts 351°
2026-04-30 20:20 37.24947 30.75361 34037 ft 450 kts 351°
2026-04-30 20:20 37.31179 30.74592 34052 ft 450 kts 351°
2026-04-30 20:21 37.37429 30.73817 34057 ft 451 kts 351°
2026-04-30 20:21 37.43683 30.73021 34052 ft 451 kts 350°
2026-04-30 20:22 37.49878 30.72080 34050 ft 450 kts 349°
2026-04-30 20:22 37.56094 30.71129 34069 ft 450 kts 349°
2026-04-30 20:23 37.62288 30.70263 34067 ft 450 kts 351°
2026-04-30 20:23 37.68506 30.69522 34066 ft 451 kts 351°
2026-04-30 20:24 37.74778 30.68770 34077 ft 452 kts 351°
2026-04-30 20:24 37.81031 30.68000 34064 ft 453 kts 351°
2026-04-30 20:25 37.90444 30.66826 34065 ft 453 kts 350°
2026-04-30 20:26 37.99797 30.65477 34066 ft 453 kts 350°
2026-04-30 20:26 38.09209 30.64257 34055 ft 453 kts 350°
2026-04-30 20:27 38.20808 30.62755 34045 ft 451 kts 350°
2026-04-30 20:28 38.33352 30.61594 34044 ft 454 kts 356°
2026-04-30 20:30 38.49155 30.61566 34037 ft 454 kts 355°
2026-04-30 20:31 38.68143 30.61336 34031 ft 455 kts 353°
2026-04-30 20:32 38.77051 30.58232 34050 ft 441 kts 329°
2026-04-30 20:32 38.82506 30.54590 34032 ft 442 kts 328°
2026-04-30 20:33 38.90678 30.49126 34032 ft 443 kts 329°
2026-04-30 20:34 38.98923 30.43685 34034 ft 443 kts 329°
2026-04-30 20:35 39.07127 30.38270 34038 ft 444 kts 329°
2026-04-30 20:35 39.15384 30.32804 34035 ft 444 kts 329°
2026-04-30 20:36 39.20901 30.29143 34035 ft 444 kts 329°
2026-04-30 20:37 39.29095 30.23693 34038 ft 442 kts 329°
2026-04-30 20:37 39.34574 30.20040 34033 ft 443 kts 329°
2026-04-30 20:38 39.40059 30.16376 34031 ft 444 kts 328°
2026-04-30 20:38 39.45527 30.12721 34025 ft 444 kts 329°
2026-04-30 20:39 39.54062 30.07840 34026 ft 447 kts 333°
2026-04-30 20:40 39.62600 30.03190 34023 ft 444 kts 332°
2026-04-30 20:40 39.65416 30.01627 34005 ft 433 kts 332°
2026-04-30 20:40 39.68132 30.00117 34000 ft 417 kts 332°
2026-04-30 20:41 39.73391 29.97177 33347 ft 407 kts 332°
2026-04-30 20:41 39.76024 29.95700 32184 ft 417 kts 332°
2026-04-30 20:41 39.78700 29.94194 30850 ft 432 kts 332°
2026-04-30 20:41 39.81504 29.92617 29425 ft 444 kts 332°
2026-04-30 20:42 39.84358 29.91016 28675 ft 439 kts 332°
2026-04-30 20:42 39.87118 29.89473 28288 ft 426 kts 332°
2026-04-30 20:42 39.92471 29.86965 27827 ft 406 kts 349°
2026-04-30 20:43 39.95281 29.86832 27533 ft 401 kts 355°
2026-04-30 20:43 39.98117 29.86863 27201 ft 412 kts 356°
2026-04-30 20:43 40.01029 29.86911 26860 ft 423 kts 356°
2026-04-30 20:44 40.06912 29.86969 26131 ft 418 kts 355°
2026-04-30 20:44 40.09777 29.86975 25780 ft 415 kts 355°
2026-04-30 20:44 40.15520 29.86964 25110 ft 410 kts 355°
2026-04-30 20:45 40.21195 29.86953 24432 ft 404 kts 354°
2026-04-30 20:45 40.23966 29.86948 24100 ft 404 kts 354°
2026-04-30 20:45 40.26774 29.86943 23755 ft 403 kts 354°
2026-04-30 20:46 40.35119 29.86930 22637 ft 395 kts 354°
2026-04-30 20:46 40.37861 29.86937 22338 ft 393 kts 356°
2026-04-30 20:47 40.42722 29.88443 21718 ft 405 kts 20°
2026-04-30 20:47 40.45171 29.90322 21394 ft 407 kts 32°
2026-04-30 20:48 40.49676 29.94612 21076 ft 387 kts 32°
2026-04-30 20:48 40.51933 29.96334 21067 ft 365 kts 14°
2026-04-30 20:48 40.54332 29.97018 20936 ft 345 kts 357°
2026-04-30 20:48 40.56737 29.97053 20432 ft 346 kts 353°
2026-04-30 20:49 40.59155 29.96985 19957 ft 348 kts 353°
2026-04-30 20:49 40.61515 29.96938 19576 ft 349 kts 353°
2026-04-30 20:49 40.63953 29.96918 19061 ft 354 kts 354°
2026-04-30 20:50 40.68796 29.96391 18408 ft 339 kts 336°
2026-04-30 20:50 40.71003 29.95405 18101 ft 333 kts 333°
2026-04-30 20:50 40.73141 29.94381 17785 ft 329 kts 333°
2026-04-30 20:50 40.75280 29.93357 17498 ft 325 kts 333°
2026-04-30 20:51 40.77404 29.92356 17225 ft 323 kts 333°
2026-04-30 20:51 40.80956 29.90705 16777 ft 323 kts 334°
2026-04-30 20:51 40.83054 29.89732 16505 ft 323 kts 333°
2026-04-30 20:52 40.84957 29.88304 16217 ft 309 kts 310°
2026-04-30 20:52 40.86199 29.86092 16158 ft 297 kts 290°
2026-04-30 20:52 40.86654 29.84537 16118 ft 290 kts 280°
2026-04-30 20:53 40.86881 29.82502 16009 ft 281 kts 269°
2026-04-30 20:53 40.86879 29.79910 15646 ft 282 kts 265°
2026-04-30 20:53 40.86818 29.77314 15407 ft 280 kts 265°
2026-04-30 20:54 40.86716 29.72226 15022 ft 278 kts 265°
2026-04-30 20:54 40.86677 29.69686 14832 ft 274 kts 265°
2026-04-30 20:54 40.86644 29.67194 14648 ft 268 kts 265°
2026-04-30 20:55 40.86367 29.62408 14291 ft 254 kts 255°
2026-04-30 20:55 40.85979 29.60181 14127 ft 249 kts 254°
2026-04-30 20:55 40.85586 29.57961 13973 ft 248 kts 254°
2026-04-30 20:56 40.84833 29.53516 13631 ft 248 kts 255°
2026-04-30 20:56 40.84477 29.51279 13460 ft 249 kts 258°
2026-04-30 20:56 40.84295 29.46668 13129 ft 254 kts 265°
2026-04-30 20:57 40.84256 29.44334 12943 ft 254 kts 265°
2026-04-30 20:57 40.84210 29.42011 12800 ft 251 kts 264°
2026-04-30 20:57 40.84156 29.39726 12628 ft 249 kts 264°
2026-04-30 20:58 40.84028 29.35162 12311 ft 248 kts 264°
2026-04-30 20:58 40.83962 29.32898 12143 ft 249 kts 264°
2026-04-30 20:58 40.83892 29.30561 11707 ft 255 kts 264°
2026-04-30 20:58 40.83822 29.28222 11439 ft 253 kts 264°
2026-04-30 20:59 40.83685 29.23630 10953 ft 247 kts 264°
2026-04-30 20:59 40.83617 29.21374 10761 ft 243 kts 264°
2026-04-30 21:00 40.83482 29.16945 10415 ft 241 kts 264°
2026-04-30 21:00 40.83342 29.12501 10075 ft 243 kts 264°
2026-04-30 21:01 40.83535 29.08071 9620 ft 243 kts 275°
2026-04-30 21:01 40.83813 29.05881 9392 ft 241 kts 275°
2026-04-30 21:01 40.84367 29.01494 8973 ft 242 kts 275°
2026-04-30 21:02 40.84633 28.99294 8737 ft 242 kts 275°
2026-04-30 21:02 40.84893 28.97100 8515 ft 242 kts 275°
2026-04-30 21:02 40.85149 28.94910 8303 ft 240 kts 275°
2026-04-30 21:02 40.85399 28.92755 8072 ft 240 kts 275°
2026-04-30 21:03 40.85650 28.90578 7854 ft 239 kts 276°
2026-04-30 21:03 40.85889 28.88402 7636 ft 238 kts 271°
2026-04-30 21:03 40.85674 28.86268 7416 ft 235 kts 251°
2026-04-30 21:03 40.85145 28.84227 7212 ft 235 kts 250°
2026-04-30 21:04 40.84820 28.82115 6962 ft 237 kts 272°
2026-04-30 21:04 40.85300 28.80060 6779 ft 242 kts 299°
2026-04-30 21:04 40.88074 28.77487 6326 ft 253 kts 336°
2026-04-30 21:05 40.89753 28.76759 6072 ft 254 kts 339°
2026-04-30 21:05 40.91434 28.76050 5822 ft 253 kts 339°
2026-04-30 21:05 40.93081 28.75336 5583 ft 251 kts 339°
2026-04-30 21:05 40.94733 28.74608 5355 ft 249 kts 340°
2026-04-30 21:06 40.96361 28.73883 5119 ft 246 kts 341°
2026-04-30 21:06 40.97982 28.73226 4990 ft 238 kts 353°
2026-04-30 21:06 40.99585 28.73247 4986 ft 223 kts
2026-04-30 21:06 41.01099 28.73280 4974 ft 215 kts 360°
2026-04-30 21:07 41.02562 28.73244 4825 ft 217 kts
2026-04-30 21:07 41.04086 28.73207 4571 ft 220 kts
2026-04-30 21:07 41.05583 28.73176 4286 ft 216 kts
2026-04-30 21:07 41.07051 28.73146 4002 ft 204 kts
2026-04-30 21:08 41.08422 28.73120 3737 ft 193 kts
2026-04-30 21:08 41.09735 28.73096 3498 ft 182 kts
2026-04-30 21:08 41.10990 28.73071 3268 ft 181 kts
2026-04-30 21:08 41.12247 28.73047 3030 ft 176 kts
2026-04-30 21:09 41.13444 28.73021 2834 ft 170 kts
2026-04-30 21:09 41.14603 28.72999 2579 ft 163 kts
2026-04-30 21:09 41.15689 28.72979 2402 ft 153 kts
2026-04-30 21:09 41.16732 28.72958 2172 ft 146 kts
2026-04-30 21:10 41.17730 28.72940 2014 ft 144 kts
2026-04-30 21:10 41.18752 28.72922 1810 ft 149 kts
2026-04-30 21:10 41.19734 28.72900 1660 ft 137 kts
2026-04-30 21:10 41.20692 28.72889 1461 ft 135 kts
2026-04-30 21:11 41.21629 28.72892 1295 ft 135 kts
2026-04-30 21:11 41.22453 28.72877 1150 ft 134 kts
2026-04-30 21:11 41.23391 28.72840 956 ft 134 kts
2026-04-30 21:11 41.24242 28.72834 814 ft 132 kts
2026-04-30 21:12 41.25170 28.72807 596 ft 135 kts
2026-04-30 21:12 41.26105 28.72775 406 ft 134 kts
2026-04-30 21:12 41.26945 28.72761 331 ft 122 kts
2026-04-30 21:12 41.27589 28.72749 331 ft 91 kts 359°
2026-04-30 21:13 41.28064 28.72830 333 ft 49 kts 28°
2026-04-30 21:13 41.28093 28.72959 333 ft 15 kts 177°
2026-04-30 21:13 41.27993 28.72964 331 ft 14 kts 179°
2026-04-30 21:13 41.27897 28.72965 332 ft 13 kts 179°
2026-04-30 21:14 41.27806 28.72967 332 ft 13 kts 179°
2026-04-30 21:14 41.27718 28.72969 331 ft 13 kts 179°
2026-04-30 21:14 41.27631 28.72971 329 ft 12 kts 179°
2026-04-30 21:14 41.27547 28.72974 330 ft 12 kts 178°
2026-04-30 21:15 41.27465 28.72976 331 ft 12 kts 180°
2026-04-30 21:15 41.27387 28.72977 330 ft 11 kts 179°
2026-04-30 21:15 41.27298 28.72979 330 ft 14 kts 179°
2026-04-30 21:15 41.27191 28.72982 333 ft 17 kts 179°
2026-04-30 21:16 41.27066 28.72984 333 ft 19 kts 179°
2026-04-30 21:16 41.26927 28.72987 329 ft 20 kts 178°
2026-04-30 21:16 41.26867 28.73060 333 ft 11 kts 74°
2026-04-30 21:16 41.26925 28.73109 333 ft 11 kts 19°
2026-04-30 21:17 41.26955 28.73198 333 ft 11 kts 88°
2026-04-30 21:17 41.26957 28.73303 331 ft 11 kts 89°
2026-04-30 21:17 41.26958 28.73396 332 ft 11 kts 89°
2026-04-30 21:17 41.26958 28.73496 330 ft 11 kts 90°
2026-04-30 21:18 41.26960 28.73609 333 ft 13 kts 89°
2026-04-30 21:18 41.26961 28.73718 333 ft 15 kts 90°
2026-04-30 21:18 41.26962 28.73869 333 ft 18 kts 89°
2026-04-30 21:18 41.26966 28.74039 333 ft 21 kts 88°
2026-04-30 21:19 41.26969 28.74261 333 ft 24 kts 90°
2026-04-30 21:19 41.26971 28.74479 333 ft 23 kts 88°
2026-04-30 21:19 41.26975 28.74686 333 ft 22 kts 89°
2026-04-30 21:19 41.26977 28.74886 333 ft 21 kts 89°
2026-04-30 21:20 41.26979 28.75080 333 ft 21 kts 90°
2026-04-30 21:20 41.26871 28.75151 333 ft 20 kts 180°
2026-04-30 21:20 41.26738 28.75154 332 ft 19 kts 179°
2026-04-30 21:20 41.26610 28.75137 333 ft 18 kts 196°
2026-04-30 21:21 41.26501 28.75088 329 ft 16 kts 214°
2026-04-30 21:21 41.26495 28.74997 330 ft 1 kts 286°
2026-04-30 21:21 41.26496 28.74993 330 ft 0 kts 286°
2026-04-30 21:22 41.26497 28.74989 333 ft 1 kts 286°
2026-04-30 21:22 41.26497 28.74988 333 ft 0 kts 286°